Location: Gleizolles
(44.4833°N, 6.7667°E)
Time: 16:39:37
(UTC+00:00)

Tiros 1 - Pass Details

Date: 29 June 2024
Orbit: 624 x 656 km, 48.4° (Epoch: 13 July)

Event Time Altitude Azimuth Distance (km) Brightness Sun altitude
Rises 20:45:37 0° 231° (SW) 2,895 10.5 -11.9°
Reaches altitude 10° 20:47:58 10° 227° (SW) 1,989 9.6 -12.2°
Maximum altitude 20:52:26 57° 149° (SSE) 737 7.1 -12.7°
Drops below altitude 10° 20:56:56 10° 72° (ENE) 1,997 9.5 -13.1°
Sets 20:59:17 0° 68° (ENE) 2,908 10.4 -13.4°
